Location: George Washington National Forest Helicopter Landing Site
(38.6463°N, 79.0851°W)
Time: 14:09:39
(UTC-04:00)

Tiros 1 despin weight - Pass Details

Date: 23 August 2019
Orbit: 595 x 642 km, 48.2° (Epoch: 15 September)

Event Time Altitude Azimuth Distance (km) Brightness Sun altitude
Rises 06:28:56 0° 301° (WNW) 2,886 ? -2.4°
Reaches altitude 10° 06:31:14 10° 299° (WNW) 1,986 ? -2.0°
Maximum altitude 06:35:47 69° 217° (SW) 672 ? -1.1°
Drops below altitude 10° 06:40:22 10° 134° (SE) 2,005 ? -0.3°
Sets 06:42:42 0° 132° (SE) 2,916 ? 0.2°
